Location: Gilevgi
(36.8751°N, 30.0581°E)
Time: 04:43:26
(UTC+00:00)

SJ-12 - Pass Details

Date: 11 December 2025
Orbit: 518 x 525 km, 97.8° (Epoch: 13 January)

Event Time Altitude Azimuth Distance (km) Brightness Sun altitude
Rises 15:23:46 0° 153° (SSE) 2,624 7.3 -8.1°
Reaches altitude 10° 15:25:54 10° 148° (SSE) 1,741 6.3 -8.5°
Maximum altitude 15:29:30 46° 74° (ENE) 706 3.9 -9.1°
Drops below altitude 10° 15:33:08 10° 1° (N) 1,755 6.2 -9.8°
Sets 15:35:17 0° 355° (N) 2,648 7.1 -10.2°
